Home   Weather   Chico   Past weeks

Flag for USA Past Weather in Chico, California, USA — Yesterday and Last 2 Weeks

Now
45 °F

Passing clouds.


Feels Like: 37 °F
Forecast: 44 / 51 °F
Wind: 20 mph from Southeast

Location: Chico Municipal

Current Time: Jan 21, 2017 at 12:57:17 am

Latest Report: Jan 21, 2017 at 12:35 am


Visibility: 10 mi

Pressure: 29.44 "Hg

Humidity: 93%

Dew Point: 43 °F

Location of ChicoLocation

Past Weather in Chico — Graph

°F

Chico Temperature Yesterday

Maximum temperature yesterday: 48 °F (at 2:50 pm)
Minimum temperature yesterday: 43 °F (at 8:00 am)
Average temperature yesterday: 46 °F

High & Low Weather Summary for the Past Weeks

 TemperatureHumidityPressure
High59 °F (Jan 8, 1:58 pm)100% (Jan 7, 2:55 am)30.28 "Hg (Jan 7, 2:55 am)
Low25 °F (Jan 6, 4:55 am)42% (Jan 6, 3:46 pm)29.25 "Hg (Jan 20, 1:47 pm)
Average44 °F90%29.97 "Hg
* Reported Jan 5 11:15 pm — Jan 20 11:15 pm, Chico, Weather by CustomWeather, © 2017

Note: Actual official high and low records may vary slightly from our data, if they occured in-between our weather recording intervals... More about our weather records

Advertising

Chico Weather History for the Previous 24 Hours

Scroll right to see more
 ConditionsComfort  
Time TempWeatherWind HumidityBarometerVisibility
11:15 pm
Fri, Jan 20
45 °FPassing clouds.17 mph93%29.41 "Hg10 mi
10:55 pm45 °FPartly cloudy.17 mph100%29.40 "Hg10 mi
10:15 pm46 °FMostly cloudy.16 mph93%29.38 "Hg10 mi
9:55 pm46 °FMostly cloudy.17 mph93%29.37 "Hg10 mi
9:35 pm46 °FPartly cloudy.20 mph93%29.36 "Hg10 mi
8:55 pm46 °FPassing clouds.17 mph93%29.35 "Hg10 mi
8:15 pm46 °FOvercast.16 mph93%29.34 "Hg10 mi
7:35 pm46 °FOvercast.15 mph93%29.32 "Hg10 mi
6:47 pm48 °FCool.16 mph82%29.30 "Hg10 mi
5:58 pm46 °FOvercast.12 mph93%29.29 "Hg10 mi
4:48 pm48 °FBroken clouds.15 mph94%29.26 "Hg25 mi
3:48 pm48 °FLight rain. Mostly cloudy.12 mph94%29.26 "Hg8 mi
2:50 pm48 °FMostly cloudy.17 mph94%29.26 "Hg25 mi
1:47 pm46 °FMostly cloudy.17 mph100%29.25 "Hg10 mi
12:50 pm46 °FMostly cloudy.17 mph93%29.27 "Hg10 mi
10:52 am45 °FLight rain. Overcast.21 mph100%29.33 "Hg10 mi
9:50 am45 °FFog.23 mph100%29.33 "Hg10 mi
8:50 am45 °FFog.23 mph100%29.32 "Hg5 mi
8:00 am43 °FFog.18 mph100%29.32 "Hg2 mi
6:55 am45 °FLight rain. Passing clouds.23 mph93%29.29 "Hg7 mi
5:35 am45 °FPassing clouds.21 mph93%29.33 "Hg7 mi
4:55 am45 °FPartly cloudy.25 mph100%29.36 "Hg10 mi
4:15 am45 °FPartly cloudy.25 mph100%29.42 "Hg1 mi
3:55 am45 °FPartly cloudy.28 mph100%29.42 "Hg4 mi
3:15 am46 °FMostly cloudy.24 mph93%29.45 "Hg10 mi
2:55 am46 °FMostly cloudy.24 mph93%29.47 "Hg10 mi
2:15 am46 °FPartly cloudy.24 mph100%29.50 "Hg10 mi
1:55 am46 °FPartly cloudy.28 mph100%29.52 "Hg10 mi
1:35 am46 °FMostly cloudy.21 mph100%29.54 "Hg10 mi
12:55 am46 °FOvercast.25 mph100%29.56 "Hg10 mi
12:15 am46 °FOvercast.24 mph100%29.60 "Hg9 mi
Weather by CustomWeather, © 2017

See weather overviewHow to use our weather pages